Regional Weather Roundup
Issued by NWS

Home | Current Version | Previous Version | Text Only | Print | Product List | Glossary Off
Versions: 1 2 3 4 5 6 7 8 9 10 11 12 13 14 15 16 17 18 19 20 21 22 23 24 25 26 27 28

000
ASUS45 KTFX 240610
RWRMT
MONTANA REGIONAL WEATHER ROUNDUP
NATIONAL WEATHER SERVICE GREAT FALLS MT
1200 AM MDT FRI MAR 24 2017

NOTE: "FAIR" INDICATES FEW OR NO CLOUDS BELOW 12000 FEET WITH NO
SIGNIFICANT WEATHER AND/OR OBSTRUCTIONS TO VISIBILITY.

MTZ001>007-043-240700-
WEST OF THE DIVIDE

CITY           SKY/WX    TMP DP  RH WIND       PRES   REMARKS
KALISPELL      PTCLDY    30  25  81 N3        30.05F
MISSOULA       CLEAR     33  25  72 N3        30.07S
BUTTE          CLEAR     28  21  75 S7        30.04S WCI  21
MULLAN PASS    CLEAR     25  22  88 S9        29.98F WCI  15
ANACONDA         N/A     28  21  74 SW7       30.05S WCI  21
DEER LODGE       N/A     30  21  69 CALM      30.07R
EUREKA           N/A     30  25  80 SE5       30.05F
HAMILTON         N/A     32  25  74 S3        30.06S
RONAN            N/A     32  26  78 CALM      30.08F
$$

MTZ008-052>055-240700-
SOUTHWEST MONTANA

CITY           SKY/WX    TMP DP  RH WIND       PRES   REMARKS
BOZEMAN        CLEAR     33  26  75 S7        30.03R WCI  27
DILLON         CLEAR     36  20  52 S5        30.02S
W YELLOWSTONE  CLEAR     25  21  86 CALM      30.05R
ENNIS          CLEAR     27  19  74 CALM      30.08R
THREE FORKS      N/A     36 -50   2 CALM      30.02R
$$

MTZ009-010-012-014-046-048-049-054-240700-
EAST SLOPES AND CENTRAL MONTANA

CITY           SKY/WX    TMP DP  RH WIND       PRES   REMARKS
CUT BANK       CLEAR     29  21  72 W9        29.98R WCI  20
GREAT FALLS    CLEAR     29  18  63 SW7       30.00S WCI  22
MALMSTROM AFB  CLEAR     29  20  68 S7        30.01F WCI  22
HELENA         CLEAR     41  23  48 SW5       30.02S
AUGUSTA          N/A     34  20  56 W12       29.98S WCI  25
BOWMANS CRNR     N/A     33  19  54 SW7       29.98S WCI  27
CHOTEAU          N/A     34  19  55 MISG      30.01R
CONRAD           N/A     25  23  91 S3        30.00S
FAIRFIELD        N/A     34  20  55 CALM      29.98S
POWER            N/A     23  17  77 CALM      29.99S
RAYNESFORD       N/A     30  20  66 CALM      30.02S
$$

MTZ011-013-016-021-045-047-050-051-240700-
NORTH CENTRAL MONTANA

CITY           SKY/WX    TMP DP  RH WIND       PRES   REMARKS
HAVRE          CLEAR     35  27  72 SW10      29.98R WCI  27
LEWISTOWN      CLEAR     32  21  64 SW10      30.01R WCI  24
N BAR RANCH    MOCLDY    36  18  48 VRB3      30.03R
CHINOOK          N/A     36  28  75 CALM      29.99R
DENTON           N/A     37  23  56 W5        29.98R
FORT BENTON      N/A     37  21  52 MISG      30.02R
GEYSER           N/A     34  21  58 SW15      30.00S WCI  24
GRASS RANGE      N/A     36  21  55 W5        29.96R
STANFORD         N/A     35  21  55 W9        30.01R WCI  28
WINIFRED         N/A     35  23  62 W9        30.00R WCI  27
$$

MTZ017>020-022>027-061-062-240700-
NORTHEAST MONTANA

CITY           SKY/WX    TMP DP  RH WIND       PRES   REMARKS
GLASGOW        CLEAR     40  29  64 W6        29.93S
JORDAN           N/A     33  28  81 W5        29.95S
SIDNEY         PTCLDY    40  35  83 NW6       29.93S
WOLF POINT     CLEAR     39  33  79 NE3       29.94S
MALTA          CLEAR     34  27  75 VRB3      29.96R
PLENTYWOOD       N/A     37  34  87 CALM      29.95S
POPLAR           N/A     37  34  87 N5        29.95R VSB 1
SCOBEY           N/A     29  22  75 CALM      29.93R
$$

MTZ028>42-056>058-240700-
SOUTHCENTRAL AND SOUTHEAST MONTANA

CITY           SKY/WX    TMP DP  RH WIND       PRES   REMARKS
BAKER          CLEAR     39  36  89 W9        29.91F
BILLINGS       CLEAR     43  36  76 SW5       29.98R
LIVINGSTON     CLEAR     30  21  69 SW5       30.01R
MILES CITY     CLOUDY    39  32  76 W9        29.94S
BIG TIMBER     CLEAR     39  23  52 S6        30.04R
EKALAKA          N/A     40  36  86 MISG      29.89F
FORSYTH          N/A     45  39  81 W5        29.96R
HARLOWTON        N/A     37  21  54 NW10      30.01R WCI  29
LAUREL           N/A     38  24  57 W3        29.97F
$$

REGIONAL REPORTS...DAKOTAS

CITY           SKY/WX    TMP DP  RH WIND       PRES   REMARKS
WILLISTON      CLEAR     32  30  92 N9        29.95S WCI  24
MINOT          CLEAR     32  29  88 NW8       29.94F WCI  25
DICKINSON      CLEAR     36  35  96 NW9       29.85F WCI  29
BEACH            N/A    N/A N/A N/A MISG        N/A
TIOGA            N/A     30  30 100 CALM      29.96S FOG
WATFORD CITY     N/A     34  34 100 CALM      29.92F
BISMARCK       CLEAR     39  34  82 CALM      29.88S
GRAND FORKS    CLEAR     34  33  96 N12       29.88S WCI  25
FARGO          CLOUDY    35  34  96 NE6       29.88F FOG     WCI  30
BUFFALO SD       N/A     38  36  92 S7        29.85R
RAPID CITY     CLOUDY    41  37  86 N10       29.94R
$$

REGIONAL REPORTS...WYOMING/IDAHO/WASHINGTON

CITY           SKY/WX    TMP DP  RH WIND       PRES   REMARKS
GILLETTE       PTCLDY    36  35  96 NW5       29.94S
SHERIDAN       CLEAR     39  33  79 CALM      29.98S
BUFFALO WY     CLEAR     36  29  75 W8        29.97F WCI  30
CODY           MOCLDY    37  32  82 SW7       30.02R WCI  32
YELLOWSTONE LA   N/A     24  20  84 CALM      30.06R
IDAHO FALLS    CLEAR     40  25  55 S18       30.06R
SALMON         CLEAR     36  21  55 CALM      30.02S
BOISE          CLEAR     44  26  49 SE9       30.04S
SPOKANE        MOCLDY    39  28  64 E3        29.99F
$$

REGIONAL REPORTS...ALBERTA

CITY           SKY/WX    TMP DP  RH WIND       PRES   REMARKS
EDMONTON       CLEAR     30  25  80 S5        29.96S
CALGARY        MOCLDY    32  23  69 SW2       29.96R
LETHBRIDGE     CLEAR     32  21  64 W8        29.97R WCI  25
MEDICINE HAT   CLEAR     37  30  75 NE6       29.94R
WATERTON GATE    N/A     36  18  48 SW14G23     N/A  WCI  27
CARDSTON         N/A     28  18  64 SW3         N/A
MILK RIVER       N/A     28  23  80 NW8         N/A  WCI  20
$$

REGIONAL REPORTS...SASKATCHEWAN

CITY           SKY/WX    TMP DP  RH WIND       PRES   REMARKS
SWIFT CURRENT  CLEAR     30  28  93 E10       29.95R WCI  21
REGINA         CLEAR     30  25  80 NE12      30.00R WCI  21
SASKATOON      CLEAR     25  21  86 E9        30.05S WCI  15
CYPRESS HILLS    N/A     36  23  60 W5          N/A
VAL MARIE        N/A     28  27  93 SW1         N/A
ROCKGLEN         N/A     36  30  80 SE3         N/A
ASSINIBOIA       N/A     12  12 100 SE5         N/A
$$




USA.gov is the U.S. government's official web portal to all federal, state and local government web resources and services.